www.pogodaiklimat.ru

Погода и климат >> Архив погоды >> Ирак >> Basrah


ПОГОДА в Basrah

  • Прогноз погоды в Basrah
  • Монитор погоды в Basrah
  • Климат города

АРХИВ ПОГОДЫ в Basrah

Время (UTC), дата Ветер
(напр.,м/с)
 
Видим.   Явления Облачность Т
(С)
Тd
(С)
f
(%)
Тe
(С)
Тes
(С)
Комфортность P
(гПа)
Po
(гПа)
Тmin
(С)
Tmax
(С)
R
(мм)
R24
(мм)
S
(см)
15 16.10 СЗ 2 10 км ясно +34.2 +14.1 30 +35 +35 очень
жарко
1012.6 1013.0
21 16.10 штиль 0 10 км ясно +26.2 +15.2 51 +29 +29 жарко 1012.8 1013.0
00 17.10 штиль 0 10 км ясно +25.2 +16.8 60 +29 +29 душно 1012.2 1012.0
06 17.10 СЗ 2 10 км ясно +30.2 +14.9 39 +32 +38 жарко 1014.4 1014.0 +24.5
09 17.10 штиль 0 10 км ясно +37.6 +13.8 24 +38 +54 опасность
солнечного
удара
1012.9 1013.0
12 17.10 штиль 0 10 км ясно +38.2 +9.6 18 +37 +43 очень
жарко
1010.9 1011.0
06 18.10 СЗ 2 10 км 1/1 1200 м
[Cu hum]
+31.2 +13.7 34 +32 +38 жарко 1013.8 1014.0 +24.2
09 18.10 СЗ 3 10 км 3/1 900 м
[Cu hum Ac trans]
+35.6 +12.5 25 +36 +44 очень
жарко
1012.9 1013.0
12 18.10 ЮВ 2 10 км 4/0
[Ac cast]
+25.4 +11.7 42 +27 +30 жарко 1010.6 1011.0
15 18.10 штиль 0 10 км ясно +30.6 +14.2 37 +32 +32 жарко 1010.6 1011.0
18 18.10 штиль 0 10 км ясно +26.6 +13.9 46 +29 +29 жарко 1011.8 1012.0 +36.8
21 18.10 ЮЗ 2 10 км ясно +27.2 +16.2 51 +31 +31 душно 1012.5 1013.0
00 19.10 штиль 0 10 км ясно +24.4 +16.2 60 +28 +28 душно 1012.1 1012.0
03 19.10 штиль 0 10 км 5/0
[Ac trans]
+25.6 +19.1 67 +31 +31 очень
душно
1013.2 1013.0
06 19.10 С 3 10 км 1/0
[Ci sp]
+31.2 +11.9 31 +32 +37 жарко 1015.6 1016.0
09 19.10 В 3 10 км 4/0
[Ci fib]
+35.8 +10.8 22 +35 +44 очень
жарко
1014.1 1014.0
12 19.10 С 4 10 км ясно +36.2 +9.3 19 +35 +38 очень
жарко
1012.8 1013.0
15 19.10 В 2 10 км ясно +32.8 +11.0 26 +32 +32 жарко 1012.9 1013.0
18 19.10 штиль 0 10 км ясно +29.2 +14.0 39 +31 +31 жарко 1014.3 1014.0 +36.6
21 19.10 штиль 0 10 км ясно +27.0 +17.5 56 +31 +31 душно 1014.0 1014.0
03 20.10 штиль 0 10 км ясно +24.4 +18.0 68 +29 +29 душно 1014.5 1015.0
06 20.10 СВ 2 10 км 5/0
[Ac trans Ci fib]
+29.8 +18.7 51 +35 +39 очень
душно
1017.0 1017.0 +24.0
09 20.10 СЗ 2 10 км ясно +34.2 +15.9 34 +37 +49 очень
душно
1015.5 1016.0
12 20.10 штиль 0 10 км ясно +35.6 +13.0 26 +36 +42 очень
жарко
1013.4 1013.0
15 20.10 С 2 10 км ясно +32.2 +10.2 26 +32 +32 жарко 1013.7 1014.0
18 20.10 СВ 3 10 км 3/0
[Ci fib]
+29.0 +12.9 37 +30 +30 жарко 1014.5 1015.0 +36.6
21 20.10 штиль 0 10 км 3/0
[Ci fib]
+26.0 +13.3 45 +28 +28 жарко 1013.5 1014.0
00 21.10 штиль 0 10 км ясно +25.8 +13.4 46 +28 +28 жарко 1012.8 1013.0
03 21.10 штиль 0 10 км 5/0
[Ac trans Ci fib]
+25.5 +17.5 61 +30 +30 душно 1013.9 1014.0
06 21.10 Ю 2 10 км 4/0
[Ci fib]
+30.8 +18.8 49 +36 +41 очень
душно
1015.6 1016.0 +24.8
09 21.10 Ю 3 10 км 5/0
[Ac trans Ci fib]
+36.0 +15.0 29 +38 +45 очень
душно
1014.3 1014.0
12 21.10 ЮЗ 3 10 км 5/4 1200 м
[Sc Ac trans]
+36.2 +13.5 26 +37 +39 очень
жарко
1012.1 1012.0
15 21.10 ЮВ 6 5000 м пыль 6/5 1200 м
[Sc Ac trans]
+29.2 +14.4 40 +31 +31 жарко 1013.3 1013.0
18 21.10 ЮВ 6 6000 м пыль 8/8 900 м
[Cu Sc]
+29.0 +19.9 58 +35 +35 очень
душно
1014.5 1015.0 +37.0
03 22.10 В 5 10 км 8/8 900 м
[Cu Sc]
+21.0 +18.7 87 +26 +26 душно 1017.1 1017.0
06 22.10 В 4 10 км 4/1 1200 м
[Cu hum Ac trans]
+25.4 +17.4 61 +29 +32 душно 1018.2 1018.0 +20.6 12
09 22.10 В 3 10 км ясно +29.8 +17.6 48 +34 +44 очень
душно
1017.0 1017.0
12 22.10 ЮЗ 3 10 км ясно +32.8 +16.8 38 +36 +40 очень
душно
1015.2 1015.0
18 22.10 Ю 2 10 км ясно +27.4 +21.7 71 +35 +35 очень
душно
1016.7 1017.0 +33.2
21 22.10 штиль 0 10 км ясно +26.0 +21.8 78 +33 +33 очень
душно
1016.4 1016.0
00 23.10 штиль 0 10 км ясно +25.2 +21.6 80 +32 +32 очень
душно
1016.7 1017.0
06 23.10 штиль 0 10 км ясно +28.0 +21.7 69 +36 +44 очень
душно
1018.5 1019.0 +23.6
09 23.10 СВ 2 10 км 1/0
[Ci fib]
+32.2 +18.8 45 +37 +48 очень
душно
1017.0 1017.0
12 23.10 В 2 10 км 3/1 1200 м
[Cu hum Ci fib]
+33.4 +17.6 39 +37 +41 очень
душно
1015.2 1015.0

 

Местоположение метеостанции Basrah (Ирак): широта 30.57 долгота 47.78 высота над уровнем моря 2 м.

В архиве по умолчанию представлена погода в Basrah за последнюю неделю. Архивные данные за месяц целиком и за предыдущие месяцы, начиная с января 2011 года, Вы можете получить, выбрав интересующий диапазон дат из раскрывающегося списка и нажав кнопку "Ввод!".


*Определитесь, кто Вы:
робот инопланетянин человек

Внимание! Время в таблицах - всемирное. Для получения местного времени необходимо прибавить поправку, которая в Basrah равна 3 ч.

Смотрите также архив погоды в соседних городах и на ближайших метеорологических станциях:

Погода в Basrah Airport (Ирак) (6 км)
Погода в Abadan (Иран) (50 км)
Погода в Abdaly (Кувейт) (55 км)
Погода в Sabriyah (Кувейт) (91 км)
Погода в Mitribah (Кувейт) (92 км)
Погода в Fao (Ирак) (95 км)
Погода в Bubiyan (Кувейт) (106 км)
Погода в Jal Aliyah (Кувейт) (108 км)
Погода в Ahwaz (Иран) (120 км)
Погода в Failaka Island (Кувейт) (131 км)

Пояснения к столбцам:

Ветер - указаны скорость ветра в м/с - средняя за 10 мин, порывы в срок и между сроками (в фигурных скобках) и направление, откуда дует ветер: С - северный, СВ - северо-восточный, В - восточный, ЮВ - юго-восточный, Ю - южный, ЮЗ - юго-западный, З - западный, СЗ - северо-западный.
Видимость - горизонтальная дальность видимости в метрах или километрах. При видимости от 1 до 10 км при отсутствии осадков обычно наблюдается дымка, при ухудшении видимости до 1 км и менее - туман. В сухую погоду видимость может ухудшаться дымом, пылью или мглою.
Явления - указаны атмосферные явления, наблюдавшиеся в срок или в последний час перед сроком; фигурными скобками обозначены явления, наблюдавшиеся между сроками (за 1-3 часа до срока); квадратными скобками обозначены град или гололедные отложения с указанием их диаметра в мм.
Облачность - указаны через наклонную черту общая и нижняя облачность в баллах и высота нижней границы облаков в метрах; квадратными скобками обозначены формы облаков: Ci - перистые, Cs - перисто-слоистые, Cc - перисто-кучевые, Ac - высококучевые, As - высокослоистые, Sc - слоисто-кучевые, Ns - слоисто-дождевые, Cu - кучевые, Cb - кучево-дождевые. Подробнее классификацию облаков см. в Атласе облаков (PDF).
T - Температура воздуха - температура, измеренная на высоте 2 м над землей.
Td - Температура точки росы - температура, при понижении до которой содержащийся в воздухе водяной пар достигнет насыщения.
f - Относительная влажность воздуха - влажноcть воздуха, измеренная на высоте 2 м над землей.
Te - Эффективная температура - температура, которую ощущает одетый по сезону человек в тени. Характеристика душности погоды. При расчете учитывается влияние влажности воздуха и скорости ветра на теплоощущения человека.
Tes - Эффективная температура на солнце - температура, которую ощущает человек, с поправкой на солнечный нагрев. Характеристика знойности погоды. Зависит от высоты солнца над горизонтом, облачности и скорости ветра. Ночью, в пасмурную погоду, а также при ветре 12 м/с и более поправка равна нулю.
P - Атмосферное давление - приведенное к уровню моря атмосферное давление.
Po - Атмосферное давление - измеренное на уровне метеостанции атмосферное давление.
Tmin - Минимальная температура - минимум температуры воздуха на высоте 2 м над землей.
Tmax - Максимальная температура - максимум температуры воздуха на высоте 2 м над землей.
R - Количество осадков - Количество выпавших осадков за период времени, мм. При наведении курсора мыши на число - период времени, за который выпало указанное количество осадков.
R24 - Количество осадков - Количество выпавших осадков за 24 часа, мм.
S - Снежный покров - Высота снежного покрова, см. При наведении курсора мыши на число - состояние снежного покрова и степень покрытия местности в баллах.